Time,TemperatureF,DewpointF,PressureIn,WindDirection,WindDirectionDegrees,WindSpeedMPH,WindSpeedGustMPH,Humidity,HourlyPrecipIn,Conditions,Clouds,dailyrainin,SoftwareType,DateUTC
2013-09-13 00:00:00,75.0,72.5,29.81,SW,217,0.0,0.0,92,0.00,,,0.00,VWS V14.00,2013-09-13 04:00:00,
2013-09-13 00:01:00,75.0,72.5,29.81,SW,217,0.0,0.0,92,0.00,,,0.00,VWS V14.00,2013-09-13 04:01:00,
2013-09-13 00:02:00,75.0,72.5,29.81,SW,217,0.0,0.0,92,0.00,,,0.00,VWS V14.00,2013-09-13 04:02:00,
2013-09-13 00:03:00,75.0,72.5,29.81,SW,217,0.0,0.0,92,0.00,,,0.00,VWS V14.00,2013-09-13 04:03:00,
2013-09-13 00:08:00,75.1,72.9,29.81,SW,217,0.0,1.0,93,0.00,,,0.00,VWS V14.00,2013-09-13 04:08:00,
2013-09-13 00:13:00,75.2,73.0,29.80,SW,217,0.0,1.0,93,0.00,,,0.00,VWS V14.00,2013-09-13 04:13:00,
2013-09-13 00:14:00,75.3,73.1,29.80,SW,217,0.0,1.0,93,0.00,,,0.00,VWS V14.00,2013-09-13 04:14:00,
2013-09-13 00:19:00,75.4,72.9,29.80,SW,217,0.0,1.0,92,0.00,,,0.00,VWS V14.00,2013-09-13 04:19:00,
2013-09-13 00:21:00,75.4,73.2,29.80,SW,217,0.0,0.0,93,0.00,,,0.00,VWS V14.00,2013-09-13 04:21:00,
2013-09-13 00:23:00,75.4,72.9,29.80,SW,217,0.0,0.0,92,0.00,,,0.00,VWS V14.00,2013-09-13 04:23:00,
2013-09-13 00:28:00,75.5,73.0,29.80,SW,217,0.0,0.0,92,0.00,,,0.00,VWS V14.00,2013-09-13 04:28:00,
2013-09-13 00:33:00,75.3,72.8,29.80,SW,217,0.0,0.0,92,0.00,,,0.00,VWS V14.00,2013-09-13 04:33:00,
2013-09-13 00:38:00,75.2,73.0,29.80,SW,217,0.0,0.0,93,0.00,,,0.00,VWS V14.00,2013-09-13 04:38:00,
2013-09-13 00:43:00,75.3,73.1,29.80,SW,217,0.0,0.0,93,0.00,,,0.00,VWS V14.00,2013-09-13 04:43:00,
2013-09-13 00:46:00,75.4,73.2,29.80,SW,217,0.0,0.0,93,0.00,,,0.00,VWS V14.00,2013-09-13 04:46:00,
2013-09-13 00:48:00,75.4,73.2,29.80,SW,217,0.0,0.0,93,0.00,,,0.00,VWS V14.00,2013-09-13 04:48:00,
2013-09-13 00:53:00,75.4,73.2,29.80,SW,217,0.0,0.0,93,0.00,,,0.00,VWS V14.00,2013-09-13 04:53:00,
2013-09-13 06:10:00,75.3,71.8,29.75,WNW,296,0.0,0.0,89,0.00,,,0.00,VWS V14.00,2013-09-13 10:10:00,
2013-09-13 06:16:00,75.1,71.6,29.75,WNW,296,0.0,1.0,89,0.00,,,0.00,VWS V14.00,2013-09-13 10:16:00,
2013-09-13 06:21:00,75.0,71.5,29.75,WNW,296,0.0,1.0,89,0.00,,,0.00,VWS V14.00,2013-09-13 10:21:00,
2013-09-13 06:26:00,74.9,71.8,29.75,WNW,296,0.0,0.0,90,0.00,,,0.00,VWS V14.00,2013-09-13 10:26:00,
2013-09-13 06:31:00,74.7,71.6,29.75,WNW,297,0.0,1.0,90,0.00,,,0.00,VWS V14.00,2013-09-13 10:31:00,
2013-09-13 06:36:00,74.6,71.5,29.75,NW,309,2.0,3.0,90,0.00,,,0.00,VWS V14.00,2013-09-13 10:36:00,
2013-09-13 06:41:00,74.6,71.8,29.75,WNW,297,1.0,2.0,91,0.00,,,0.00,VWS V14.00,2013-09-13 10:41:00,
2013-09-13 06:46:00,74.8,72.0,29.75,WNW,290,1.0,3.0,91,0.00,,,0.00,VWS V14.00,2013-09-13 10:46:00,
2013-09-13 06:51:00,74.8,72.0,29.75,WNW,296,4.0,5.0,91,0.00,,,0.00,VWS V14.00,2013-09-13 10:51:00,
2013-09-13 06:56:00,75.0,72.2,29.75,WNW,297,0.0,5.0,91,0.00,,,0.00,VWS V14.00,2013-09-13 10:56:00,
2013-09-13 07:02:00,75.0,72.2,29.75,WNW,302,2.0,2.0,91,0.00,,,0.00,VWS V14.00,2013-09-13 11:02:00,
2013-09-13 07:07:00,75.1,72.3,29.75,WNW,296,0.0,6.0,91,0.00,,,0.00,VWS V14.00,2013-09-13 11:07:00,
2013-09-13 07:12:00,75.0,72.2,29.76,WNW,296,1.0,1.0,91,0.00,,,0.00,VWS V14.00,2013-09-13 11:12:00,
2013-09-13 07:17:00,75.1,72.3,29.75,NW,323,2.0,5.0,91,0.00,,,0.00,VWS V14.00,2013-09-13 11:17:00,
2013-09-13 07:22:00,75.1,72.6,29.75,WNW,298,1.0,2.0,92,0.00,,,0.00,VWS V14.00,2013-09-13 11:22:00,
2013-09-13 07:27:00,75.2,72.7,29.75,WNW,298,0.0,5.0,92,0.00,,,0.00,VWS V14.00,2013-09-13 11:27:00,
2013-09-13 07:32:00,75.2,72.7,29.76,WNW,294,2.0,2.0,92,0.00,,,0.00,VWS V14.00,2013-09-13 11:32:00,
2013-09-13 07:37:00,75.3,72.8,29.75,WNW,296,1.0,3.0,92,0.00,,,0.00,VWS V14.00,2013-09-13 11:37:00,
2013-09-13 07:42:00,75.3,72.8,29.76,NNW,331,0.0,2.0,92,0.00,,,0.00,VWS V14.00,2013-09-13 11:42:00,
2013-09-13 07:47:00,75.4,72.9,29.76,NW,315,0.0,4.0,92,0.00,,,0.00,VWS V14.00,2013-09-13 11:47:00,
2013-09-13 07:52:00,75.5,73.0,29.76,NW,304,2.0,2.0,92,0.00,,,0.00,VWS V14.00,2013-09-13 11:52:00,
2013-09-13 07:57:00,75.7,73.2,29.76,NW,307,0.0,5.0,92,0.00,,,0.00,VWS V14.00,2013-09-13 11:57:00,
2013-09-13 08:03:00,75.9,73.4,29.75,WNW,302,1.0,2.0,92,0.00,,,0.00,VWS V14.00,2013-09-13 12:03:00,
2013-09-13 08:08:00,76.2,73.7,29.76,West,263,1.0,3.0,92,0.00,,,0.00,VWS V14.00,2013-09-13 12:08:00,
2013-09-13 08:13:00,76.4,73.6,29.76,WNW,303,5.0,5.0,91,0.00,,,0.00,VWS V14.00,2013-09-13 12:13:00,
2013-09-13 08:18:00,76.6,73.8,29.76,NW,315,2.0,5.0,91,0.00,,,0.00,VWS V14.00,2013-09-13 12:18:00,
2013-09-13 08:23:00,76.8,73.7,29.75,NW,309,0.0,3.0,90,0.00,,,0.00,VWS V14.00,2013-09-13 12:23:00,
2013-09-13 08:28:00,76.9,73.8,29.75,WNW,296,1.0,3.0,90,0.00,,,0.00,VWS V14.00,2013-09-13 12:28:00,
2013-09-13 08:33:00,77.0,73.8,29.75,NW,304,3.0,6.0,90,0.00,,,0.00,VWS V14.00,2013-09-13 12:33:00,
2013-09-13 08:38:00,77.3,74.1,29.75,SW,219,0.0,6.0,90,0.00,,,0.00,VWS V14.00,2013-09-13 12:38:00,
2013-09-13 08:43:00,77.4,73.9,29.75,West,277,0.0,3.0,89,0.00,,,0.00,VWS V14.00,2013-09-13 12:43:00,
2013-09-13 08:48:00,77.5,74.0,29.75,NNW,329,0.0,3.0,89,0.00,,,0.00,VWS V14.00,2013-09-13 12:48:00,
2013-09-13 08:53:00,77.8,74.6,29.75,NNW,336,2.0,4.0,90,0.00,,,0.00,VWS V14.00,2013-09-13 12:53:00,
2013-09-13 08:58:00,78.2,74.4,29.75,NW,311,0.0,5.0,88,0.00,,,0.00,VWS V14.00,2013-09-13 12:58:00,
2013-09-13 09:03:00,78.9,75.4,29.75,NW,304,0.0,5.0,89,0.00,,,0.00,VWS V14.00,2013-09-13 13:03:00,
2013-09-13 09:09:00,79.5,75.3,29.76,WNW,300,0.0,5.0,87,0.00,,,0.00,VWS V14.00,2013-09-13 13:09:00,
2013-09-13 09:14:00,79.8,75.2,29.76,WNW,300,0.0,3.0,86,0.00,,,0.00,VWS V14.00,2013-09-13 13:14:00,
2013-09-13 09:19:00,80.0,75.4,29.76,NW,315,0.0,5.0,86,0.00,,,0.00,VWS V14.00,2013-09-13 13:19:00,
2013-09-13 09:24:00,80.3,75.4,29.76,NW,309,1.0,6.0,85,0.00,,,0.00,VWS V14.00,2013-09-13 13:24:00,
2013-09-13 09:29:00,80.2,75.6,29.76,WNW,283,0.0,6.0,86,0.00,,,0.00,VWS V14.00,2013-09-13 13:29:00,
2013-09-13 09:34:00,80.0,75.1,29.77,WNW,294,1.0,2.0,85,0.00,,,0.00,VWS V14.00,2013-09-13 13:34:00,
2013-09-13 09:39:00,79.9,75.3,29.76,NW,315,0.0,3.0,86,0.00,,,0.00,VWS V14.00,2013-09-13 13:39:00,
2013-09-13 09:44:00,79.9,75.3,29.76,WNW,292,3.0,4.0,86,0.00,,,0.00,VWS V14.00,2013-09-13 13:44:00,
2013-09-13 09:49:00,79.9,75.3,29.76,WNW,298,4.0,4.0,86,0.00,,,0.00,VWS V14.00,2013-09-13 13:49:00,
2013-09-13 09:54:00,79.7,75.2,29.76,WNW,302,1.0,3.0,86,0.00,,,0.00,VWS V14.00,2013-09-13 13:54:00,
2013-09-13 09:59:00,79.5,74.9,29.76,ENE,61,2.0,3.0,86,0.00,,,0.00,VWS V14.00,2013-09-13 13:59:00,
2013-09-13 10:04:00,79.3,74.8,29.77,ENE,59,1.0,2.0,86,0.00,,,0.00,VWS V14.00,2013-09-13 14:04:00,
2013-09-13 10:10:00,79.1,74.9,29.77,WNW,294,1.0,6.0,87,0.00,,,0.00,VWS V14.00,2013-09-13 14:10:00,
2013-09-13 10:15:00,79.0,74.8,29.77,WNW,286,0.0,3.0,87,0.00,,,0.00,VWS V14.00,2013-09-13 14:15:00,
2013-09-13 10:20:00,78.9,74.7,29.77,East,101,0.0,3.0,87,0.00,,,0.00,VWS V14.00,2013-09-13 14:20:00,
2013-09-13 10:25:00,78.9,74.7,29.77,NE,50,1.0,3.0,87,0.00,,,0.00,VWS V14.00,2013-09-13 14:25:00,
2013-09-13 10:30:00,78.9,74.7,29.77,NE,50,2.0,3.0,87,0.00,,,0.00,VWS V14.00,2013-09-13 14:30:00,
2013-09-13 10:35:00,79.1,74.6,29.76,NE,53,0.0,3.0,86,0.00,,,0.00,VWS V14.00,2013-09-13 14:35:00,
2013-09-13 10:40:00,79.1,74.6,29.77,NE,53,0.0,3.0,86,0.00,,,0.00,VWS V14.00,2013-09-13 14:40:00,
2013-09-13 10:45:00,79.2,74.7,29.76,NNE,32,0.0,2.0,86,0.00,,,0.00,VWS V14.00,2013-09-13 14:45:00,
2013-09-13 10:50:00,79.5,74.9,29.76,NNE,32,0.0,2.0,86,0.00,,,0.00,VWS V14.00,2013-09-13 14:50:00,
2013-09-13 10:55:00,79.9,75.0,29.76,NNE,32,1.0,2.0,85,0.00,,,0.00,VWS V14.00,2013-09-13 14:55:00,
2013-09-13 11:00:00,80.5,75.6,29.76,WNW,292,3.0,5.0,85,0.00,,,0.00,VWS V14.00,2013-09-13 15:00:00,
2013-09-13 11:05:00,81.0,75.7,29.76,WNW,299,0.0,4.0,84,0.00,,,0.00,VWS V14.00,2013-09-13 15:05:00,
2013-09-13 11:10:00,81.5,75.5,29.75,NW,321,0.0,4.0,82,0.00,,,0.00,VWS V14.00,2013-09-13 15:10:00,
2013-09-13 11:16:00,81.9,75.9,29.76,WNW,284,2.0,2.0,82,0.00,,,0.00,VWS V14.00,2013-09-13 15:16:00,
2013-09-13 11:21:00,82.3,75.9,29.76,NE,36,0.0,3.0,81,0.00,,,0.00,VWS V14.00,2013-09-13 15:21:00,
2013-09-13 11:26:00,82.7,75.9,29.75,NE,36,0.0,1.0,80,0.00,,,0.00,VWS V14.00,2013-09-13 15:26:00,
2013-09-13 11:31:00,83.1,76.3,29.75,ENE,66,2.0,3.0,80,0.00,,,0.00,VWS V14.00,2013-09-13 15:31:00,
2013-09-13 11:36:00,83.4,76.2,29.75,ENE,59,1.0,5.0,79,0.00,,,0.00,VWS V14.00,2013-09-13 15:36:00,
2013-09-13 11:41:00,83.8,75.8,29.75,NE,51,1.0,5.0,77,0.00,,,0.00,VWS V14.00,2013-09-13 15:41:00,
2013-09-13 11:46:00,83.9,75.9,29.75,ENE,65,3.0,5.0,77,0.00,,,0.00,VWS V14.00,2013-09-13 15:46:00,
2013-09-13 11:51:00,83.9,76.7,29.75,ENE,60,3.0,4.0,79,0.00,,,0.00,VWS V14.00,2013-09-13 15:51:00,
2013-09-13 11:56:00,83.9,75.9,29.75,ENE,67,0.0,5.0,77,0.00,,,0.00,VWS V14.00,2013-09-13 15:56:00,
2013-09-13 12:01:00,84.2,76.2,29.74,ENE,68,0.0,1.0,77,0.00,,,0.00,VWS V14.00,2013-09-13 16:01:00,
2013-09-13 12:06:00,84.3,75.9,29.74,ENE,67,2.0,3.0,76,0.00,,,0.00,VWS V14.00,2013-09-13 16:06:00,
2013-09-13 12:11:00,84.4,76.0,29.75,ENE,59,1.0,1.0,76,0.00,,,0.00,VWS V14.00,2013-09-13 16:11:00,
2013-09-13 12:16:00,84.5,76.5,29.75,ENE,61,1.0,3.0,77,0.00,,,0.00,VWS V14.00,2013-09-13 16:16:00,
2013-09-13 12:22:00,84.9,76.9,29.75,ENE,61,1.0,2.0,77,0.00,,,0.00,VWS V14.00,2013-09-13 16:22:00,
2013-09-13 12:27:00,85.3,76.5,29.75,NNE,33,1.0,4.0,75,0.00,,,0.00,VWS V14.00,2013-09-13 16:27:00,
2013-09-13 12:32:00,85.3,77.3,29.74,NE,44,1.0,3.0,77,0.00,,,0.00,VWS V14.00,2013-09-13 16:32:00,
2013-09-13 12:37:00,85.4,75.3,29.74,NE,52,0.0,3.0,72,0.00,,,0.00,VWS V14.00,2013-09-13 16:37:00,
2013-09-13 12:42:00,85.7,75.2,29.74,NE,34,0.0,2.0,71,0.00,,,0.00,VWS V14.00,2013-09-13 16:42:00,
2013-09-13 12:47:00,86.1,75.6,29.74,WNW,289,0.0,2.0,71,0.00,,,0.00,VWS V14.00,2013-09-13 16:47:00,
2013-09-13 12:52:00,86.8,76.7,29.74,East,85,2.0,3.0,72,0.00,,,0.00,VWS V14.00,2013-09-13 16:52:00,
2013-09-13 12:57:00,87.1,76.1,29.74,ENE,65,1.0,4.0,70,0.00,,,0.00,VWS V14.00,2013-09-13 16:57:00,
2013-09-13 13:02:00,86.8,76.7,29.74,ENE,69,2.0,3.0,72,0.00,,,0.00,VWS V14.00,2013-09-13 17:02:00,
2013-09-13 13:07:00,86.2,75.7,29.74,ENE,69,1.0,3.0,71,0.00,,,0.00,VWS V14.00,2013-09-13 17:07:00,
2013-09-13 13:12:00,85.8,76.2,29.73,ENE,69,0.0,1.0,73,0.00,,,0.00,VWS V14.00,2013-09-13 17:12:00,
2013-09-13 13:17:00,85.9,75.4,29.73,ENE,69,1.0,2.0,71,0.00,,,0.00,VWS V14.00,2013-09-13 17:17:00,
2013-09-13 13:23:00,86.6,76.5,29.73,NNE,30,2.0,3.0,72,0.00,,,0.00,VWS V14.00,2013-09-13 17:23:00,
2013-09-13 13:28:00,87.0,76.0,29.73,ENE,68,3.0,4.0,70,0.00,,,0.00,VWS V14.00,2013-09-13 17:28:00,
2013-09-13 13:33:00,87.0,75.6,29.73,ENE,68,1.0,1.0,69,0.00,,,0.00,VWS V14.00,2013-09-13 17:33:00,
2013-09-13 13:38:00,87.2,75.8,29.72,SE,142,0.0,3.0,69,0.00,,,0.00,VWS V14.00,2013-09-13 17:38:00,
2013-09-13 13:43:00,87.5,76.1,29.72,West,281,0.0,3.0,69,0.00,,,0.00,VWS V14.00,2013-09-13 17:43:00,
2013-09-13 15:00:00,89.0,75.2,29.70,NW,315,1.0,4.0,64,0.00,,,0.00,VWS V14.00,2013-09-13 19:00:00,
2013-09-13 15:17:00,89.9,74.7,29.70,WNW,287,5.0,5.0,61,0.00,,,0.00,VWS V14.00,2013-09-13 19:17:00,
2013-09-13 15:22:00,90.0,75.7,29.70,WNW,292,0.0,3.0,63,0.00,,,0.00,VWS V14.00,2013-09-13 19:22:00,
2013-09-13 15:27:00,89.6,73.9,29.70,WNW,297,1.0,6.0,60,0.00,,,0.00,VWS V14.00,2013-09-13 19:27:00,
2013-09-13 17:40:00,86.5,78.0,29.70,WNW,292,0.0,0.0,76,0.00,,,0.00,VWS V14.00,2013-09-13 21:40:00,
2013-09-13 17:54:00,85.8,78.5,29.70,WNW,295,0.0,0.0,79,0.00,,,0.00,VWS V14.00,2013-09-13 21:54:00,
2013-09-13 17:59:00,85.3,78.8,29.70,WNW,295,0.0,0.0,81,0.00,,,0.00,VWS V14.00,2013-09-13 21:59:00,
2013-09-13 18:04:00,84.9,78.8,29.70,WNW,295,0.0,0.0,82,0.00,,,0.00,VWS V14.00,2013-09-13 22:04:00,
2013-09-13 18:09:00,84.4,78.3,29.70,WNW,295,0.0,0.0,82,0.00,,,0.00,VWS V14.00,2013-09-13 22:09:00,
2013-09-13 18:14:00,84.0,77.5,29.70,WNW,295,0.0,0.0,81,0.00,,,0.00,VWS V14.00,2013-09-13 22:14:00,
2013-09-13 18:19:00,83.8,78.1,29.70,WNW,295,0.0,0.0,83,0.00,,,0.00,VWS V14.00,2013-09-13 22:19:00,
2013-09-13 18:24:00,83.6,78.3,29.70,WNW,295,0.0,0.0,84,0.00,,,0.00,VWS V14.00,2013-09-13 22:24:00,
2013-09-13 18:29:00,83.4,78.1,29.70,WNW,295,0.0,0.0,84,0.00,,,0.00,VWS V14.00,2013-09-13 22:29:00,
2013-09-13 18:34:00,83.2,77.9,29.70,WNW,295,0.0,0.0,84,0.00,,,0.00,VWS V14.00,2013-09-13 22:34:00,
2013-09-13 18:39:00,83.0,78.0,29.70,NW,319,0.0,3.0,85,0.00,,,0.00,VWS V14.00,2013-09-13 22:39:00,
2013-09-13 18:44:00,83.0,77.7,29.70,NW,319,0.0,1.0,84,0.00,,,0.00,VWS V14.00,2013-09-13 22:44:00,
2013-09-13 18:49:00,82.9,77.9,29.71,NW,319,0.0,1.0,85,0.00,,,0.00,VWS V14.00,2013-09-13 22:49:00,
2013-09-13 18:55:00,82.6,78.0,29.71,NW,317,0.0,2.0,86,0.00,,,0.00,VWS V14.00,2013-09-13 22:55:00,
2013-09-13 19:00:00,82.4,78.1,29.71,NW,317,0.0,2.0,87,0.00,,,0.00,VWS V14.00,2013-09-13 23:00:00,
2013-09-13 19:05:00,82.2,77.9,29.71,North,350,0.0,2.0,87,0.00,,,0.00,VWS V14.00,2013-09-13 23:05:00,
2013-09-13 19:10:00,82.1,78.2,29.72,North,349,0.0,2.0,88,0.00,,,0.00,VWS V14.00,2013-09-13 23:10:00,
2013-09-13 19:15:00,81.8,78.2,29.71,North,349,0.0,1.0,89,0.00,,,0.00,VWS V14.00,2013-09-13 23:15:00,
2013-09-13 19:20:00,81.6,78.1,29.72,North,350,0.0,1.0,89,0.00,,,0.00,VWS V14.00,2013-09-13 23:20:00,
2013-09-13 19:25:00,81.3,77.8,29.72,North,349,0.0,0.0,89,0.00,,,0.00,VWS V14.00,2013-09-13 23:25:00,
2013-09-13 19:30:00,81.1,77.9,29.72,North,349,0.0,0.0,90,0.00,,,0.00,VWS V14.00,2013-09-13 23:30:00,
2013-09-13 19:35:00,80.9,77.7,29.73,NW,305,2.0,2.0,90,0.00,,,0.00,VWS V14.00,2013-09-13 23:35:00,
2013-09-13 19:40:00,80.6,77.4,29.73,NW,306,0.0,2.0,90,0.00,,,0.00,VWS V14.00,2013-09-13 23:40:00,
2013-09-13 19:45:00,80.4,77.5,29.73,NW,305,0.0,1.0,91,0.00,,,0.00,VWS V14.00,2013-09-13 23:45:00,
2013-09-13 19:50:00,80.2,77.3,29.73,NW,306,0.0,1.0,91,0.00,,,0.00,VWS V14.00,2013-09-13 23:50:00,
2013-09-13 19:56:00,80.1,77.2,29.73,NW,305,0.0,0.0,91,0.00,,,0.00,VWS V14.00,2013-09-13 23:56:00,
2013-09-13 19:57:00,79.9,77.0,29.73,NW,306,0.0,0.0,91,0.00,,,0.00,VWS V14.00,2013-09-13 23:57:00,
2013-09-13 20:01:00,79.9,77.0,29.73,NW,306,0.0,0.0,91,0.00,,,0.00,VWS V14.00,2013-09-14 00:01:00,
2013-09-13 20:06:00,79.9,77.0,29.73,NW,306,0.0,0.0,91,0.00,,,0.00,VWS V14.00,2013-09-14 00:06:00,